Location: Sperry Observatory
(40.6664°N, 74.3236°W)
Time: 06:35:21
(UTC-04:00)

Amateur Radio Satellites - All Passes

Search period start: 25 September 2016 06:05
Search period end: 26 September 2016 06:05
Location: Sperry Observatory, 40.6664°N, 74.3236°W

Satellite Date Start Highest point End Downlink Frequencies (MHz)
Time Altitude Azimuth
LilacSat-2 25 Sep 06:14:25 06:16:35 14° 92° (E) 06:18:45 437.200
AIST 2 25 Sep 06:15:39 06:18:31 18° 316° (NW) 06:21:24 435.215
AIST 1 25 Sep 06:18:26 06:22:46 59° 280° (W) 06:27:07
CUSAT 1 25 Sep 06:47:08 06:55:07 80° 80° (E) 07:01:55 437.405
HORYU 2 25 Sep 06:52:19 06:56:24 37° 290° (WNW) 07:00:29 437.375
Cosmos 2504 25 Sep 06:57:36 07:01:18 14° 297° (WNW) 07:04:57 435.465 / 435.565
RS-15 25 Sep 07:00:43 07:12:31 54° 249° (WSW) 07:24:00 29.354- 29.394
NOAA 15 25 Sep 07:03:53 07:09:11 66° 102° (ESE) 07:14:25 137.62
AO-7 25 Sep 07:04:55 07:10:16 19° 310° (NW) 07:15:36 29.400- 29.500
Cubesat XI-IV 25 Sep 07:08:19 07:13:37 59° 101° (E) 07:18:54 437.490
CUTE-I 25 Sep 07:09:32 07:14:50 61° 101° (ESE) 07:20:08 437.470
BRITE-PL 25 Sep 07:17:21 07:21:57 38° 290° (WNW) 07:26:11 437.365/2234.400
PCSat 25 Sep 07:20:29 07:23:53 17° 318° (NW) 07:27:17 145.827
GOMX 1 25 Sep 07:23:01 07:27:33 77° 283° (WNW) 07:31:46 467.674
NOAA 18 25 Sep 07:23:20 07:28:46 64° 102° (ESE) 07:34:11 137.9125
STRAND 1 25 Sep 07:23:23 07:28:28 82° 75° (ENE) 07:33:36 437.568
CANX-2 25 Sep 07:36:26 07:38:10 12° 90° (E) 07:39:53 2200.000
CUTE 1.7 + AOD 2 25 Sep 07:37:08 07:37:30 10° 89° (E) 07:37:51 437.475
AO-85 25 Sep 07:38:51 07:42:42 39° 244° (WSW) 07:46:20 145.980
HO-68 25 Sep 07:42:26 07:47:37 21° 92° (E) 07:52:46 435.675
DANDE 25 Sep 07:45:46 07:54:10 87° 262° (W) 08:02:13 436.750
LilacSat-2 25 Sep 07:47:29 07:51:01 37° 288° (WNW) 07:54:34 437.200
O/OREOS (USA 219) 25 Sep 07:49:23 07:53:43 47° 107° (ESE) 07:58:08 437.305
CINEMA 3 25 Sep 07:58:54 08:02:22 25° 96° (E) 08:05:52 145.822/145.860
DOVE 4 25 Sep 08:00:38 08:04:52 71° 286° (WNW) 08:08:59 437.250
GONETS M04 25 Sep 08:18:17 08:25:50 33° 84° (E) 08:33:25
Cosmos 2499 25 Sep 08:21:35 08:27:04 24° 84° (E) 08:32:27 435.465 / 435.565
CUSAT 1 25 Sep 08:30:49 08:36:01 20° 280° (W) 08:40:46 437.405
NOAA 15 25 Sep 08:45:06 08:48:23 17° 299° (WNW) 08:51:39 137.62
Cubesat XI-IV 25 Sep 08:49:34 08:53:12 19° 298° (WNW) 08:56:51 437.490
CUTE-I 25 Sep 08:50:50 08:54:22 18° 298° (WNW) 08:57:55 437.470
PRISM 25 Sep 08:51:09 08:55:16 66° 75° (ENE) 08:59:26 437.425
ZACube-1 25 Sep 08:54:21 08:55:52 12° 91° (E) 08:57:23 437.345
COMPASS 1 25 Sep 08:54:25 08:58:22 37° 97° (E) 09:02:16 437.405
Oscar 11 25 Sep 08:58:13 09:00:06 12° 90° (E) 09:01:57 145.826/435.025
NOAA 18 25 Sep 09:05:17 09:08:54 18° 299° (WNW) 09:12:31 137.9125
STRAND 1 25 Sep 09:06:57 09:08:15 11° 271° (W) 09:09:32 437.568
CUTE 1.7 + AOD 2 25 Sep 09:09:29 09:13:46 67° 284° (WNW) 09:18:01 437.475
CANX-2 25 Sep 09:10:07 09:14:22 57° 285° (WNW) 09:18:34 2200.000
SEEDS 25 Sep 09:16:46 09:21:04 80° 282° (WNW) 09:25:18 437.485
TIGRISAT 25 Sep 09:19:13 09:21:40 15° 65° (ENE) 09:24:08 435.000
CUBEBUG 2 25 Sep 09:27:03 09:31:18 68° 102° (ESE) 09:35:37 437.445
HO-68 25 Sep 09:28:47 09:35:54 70° 290° (WNW) 09:43:00 435.675
O/OREOS (USA 219) 25 Sep 09:30:11 09:33:24 19° 305° (NW) 09:36:38 437.305
DANDE 25 Sep 09:30:31 09:35:50 19° 280° (W) 09:41:02 436.750
CINEMA 3 25 Sep 09:36:03 09:39:27 25° 291° (WNW) 09:42:54 145.822/145.860
FUNcube-1 25 Sep 09:48:02 09:52:09 43° 99° (E) 09:56:20 145.935
AAUSAT CUBESAT 2 25 Sep 09:48:32 09:52:43 65° 285° (WNW) 09:56:51 437.432
UWE-3 25 Sep 09:51:45 09:56:03 84° 102° (ESE) 10:00:26 435.000/436.395/437.385
UNISAT 6 25 Sep 09:56:58 10:01:00 41° 72° (ENE) 10:05:00 437.425
DELFI C3 25 Sep 10:00:34 10:03:50 23° 95° (E) 10:07:05 145.870
BEESAT 3 25 Sep 10:11:29 10:15:00 30° 50° (NE) 10:18:31 437.485
Cosmos 2499 25 Sep 10:12:35 10:19:38 55° 282° (WNW) 10:26:34 435.465 / 435.565
GONETS M04 25 Sep 10:13:39 10:22:13 54° 283° (WNW) 10:30:52
JAS-2 25 Sep 10:17:58 10:21:25 15° 53° (NE) 10:25:03 435.910
ZACube-1 25 Sep 10:28:15 10:32:29 60° 285° (WNW) 10:36:48 437.345
POPSAT HIP 1 25 Sep 10:28:31 10:30:06 12° 63° (ENE) 10:31:41 437.405
COMPASS 1 25 Sep 10:30:42 10:33:38 19° 293° (WNW) 10:36:34 437.405
ANTELSAT 25 Sep 10:32:13 10:36:30 80° 258° (WSW) 10:40:47 437.575/2403.000
Oscar 11 25 Sep 10:32:17 10:36:34 56° 286° (WNW) 10:40:49 145.826/435.025
NANOSAT C BR1 25 Sep 10:45:37 10:48:25 18° 66° (ENE) 10:51:14 145.865
TIGRISAT 25 Sep 10:53:50 10:57:59 47° 261° (W) 11:02:06 435.000
BEESAT 2 25 Sep 11:00:24 11:04:19 47° 54° (NE) 11:08:11 435.950
QB50P2 25 Sep 11:05:00 11:08:45 32° 70° (ENE) 11:12:30 145.880/145.840
CUBEBUG 2 25 Sep 11:06:07 11:07:23 11° 297° (WNW) 11:08:39 437.445
POLYITAN 1 25 Sep 11:07:16 11:11:00 32° 70° (ENE) 11:14:44 437.675
ESTCUBE 1 25 Sep 11:09:20 11:10:28 11° 89° (E) 11:11:35 437.505/2401.250
HUMSAT D 25 Sep 11:15:22 11:19:37 88° 104° (ESE) 11:23:54 437.325/437.525
HO-68 25 Sep 11:19:04 11:22:22 14° 309° (NW) 11:25:40 435.675
FUNcube-1 25 Sep 11:25:18 11:28:04 17° 294° (WNW) 11:30:52 145.935
CUBEBUG 1 25 Sep 11:33:12 11:34:54 12° 90° (E) 11:36:35 437.445
UNISAT 6 25 Sep 11:35:10 11:37:53 16° 267° (W) 11:40:37 437.425
DELFI C3 25 Sep 11:35:15 11:38:36 25° 291° (WNW) 11:41:55 145.870
QB50P1 25 Sep 11:47:52 11:52:06 87° 261° (W) 11:56:19 145.935-145.965
DUCHIFAT 1 25 Sep 11:49:08 11:53:19 84° 77° (ENE) 11:57:31 145.980
BEESAT 3 25 Sep 11:49:18 11:52:32 24° 247° (WSW) 11:55:46 437.485
JAS-2 25 Sep 11:58:49 12:05:04 78° 74° (ENE) 12:12:15 435.910
POPSAT HIP 1 25 Sep 12:01:11 12:05:20 62° 258° (WSW) 12:09:32 437.405
BUGSAT 1 25 Sep 12:04:06 12:08:05 49° 73° (ENE) 12:12:03 437.445
PHONESAT 2.4 25 Sep 12:07:35 12:10:04 25° 155° (SSE) 12:12:34 2401.200-2431.200
AISAT 25 Sep 12:11:46 12:15:29 26° 96° (E) 12:19:11 437.250
NANOSAT C BR1 25 Sep 12:19:55 12:23:51 39° 262° (W) 12:27:48 145.865
50 SAT 25 Sep 12:23:02 12:26:19 30° 97° (E) 12:29:35 437.505
SPROUT 25 Sep 12:26:53 12:30:03 20° 94° (E) 12:33:11 437.525
AUBIESAT-1 25 Sep 12:26:56 12:28:28 13° 98° (E) 12:30:00 437.475
UKube-1 25 Sep 12:34:55 12:38:14 21° 95° (E) 12:41:32 .
BEESAT 2 25 Sep 12:39:25 12:41:44 15° 250° (WSW) 12:44:01 435.950
PCSat 25 Sep 12:41:13 12:43:28 12° 38° (NE) 12:45:43 145.827
QB50P2 25 Sep 12:41:25 12:44:35 21° 266° (W) 12:47:46 145.880/145.840
ESTCUBE 1 25 Sep 12:43:12 12:47:44 70° 286° (WNW) 12:52:13 437.505/2401.250
POLYITAN 1 25 Sep 12:43:42 12:46:50 20° 266° (W) 12:50:00 437.675
Oscar 19 25 Sep 12:46:46 12:51:19 32° 67° (ENE) 12:55:53 437.125/150
VELOX 1 25 Sep 12:55:10 12:59:35 77° 101° (ESE) 13:03:58 145.980
DX 1 25 Sep 12:57:09 13:01:23 49° 100° (E) 13:05:34 434.975-435.025
AIST 2 25 Sep 12:57:24 13:01:11 32° 50° (NE) 13:04:57 435.215
M-CUBED/EXP-1 PRIME 25 Sep 13:00:20 13:03:30 46° 105° (ESE) 13:06:39 437.505
CUBEBUG 1 25 Sep 13:07:16 13:11:33 58° 286° (WNW) 13:15:46 437.445
Gurwin Techsat 1B 25 Sep 13:21:07 13:25:46 32° 67° (ENE) 13:30:26 435.225
ITAMSAT 1 25 Sep 13:36:18 13:38:30 13° 59° (ENE) 13:40:42 435.822/435.867
BUGSAT 1 25 Sep 13:41:49 13:43:43 13° 268° (W) 13:45:37 437.445
PHONESAT 2.4 25 Sep 13:43:01 13:45:59 76° 171° (S) 13:48:57 2401.200-2431.200
JAS-2 25 Sep 13:47:01 13:51:03 17° 274° (W) 13:55:22 435.910
AISAT 25 Sep 13:48:10 13:51:53 27° 292° (WNW) 13:55:34 437.250
50 SAT 25 Sep 13:57:11 13:59:35 17° 293° (WNW) 14:01:59 437.505
TISAT 1 25 Sep 13:57:13 14:01:08 39° 98° (E) 14:05:02 437.305
AUBIESAT-1 25 Sep 14:00:07 14:03:05 30° 294° (WNW) 14:06:01 437.475
SPROUT 25 Sep 14:02:13 14:06:03 33° 289° (WNW) 14:09:51 437.525
Cosmos 2491 25 Sep 14:02:27 14:08:33 21° 79° (E) 14:14:39 435.465 / 435.565
YUBILEINY 25 Sep 14:06:01 14:14:18 45° 74° (ENE) 14:22:31 435.215
UKube-1 25 Sep 14:10:27 14:14:19 32° 290° (WNW) 14:18:09 .
AO-7 25 Sep 14:17:56 14:24:52 31° 57° (ENE) 14:31:47 29.400- 29.500
PCSat 25 Sep 14:22:32 14:27:57 65° 59° (ENE) 14:33:19 145.827
Oscar 19 25 Sep 14:26:00 14:30:34 31° 264° (W) 14:35:11 437.125/150
ITUPSAT 1 25 Sep 14:28:15 14:31:19 17° 92° (E) 14:34:23 437.325
VELOX 1 25 Sep 14:34:25 14:35:24 11° 299° (WNW) 14:36:22 145.980
DX 1 25 Sep 14:34:35 14:37:08 15° 296° (WNW) 14:39:41 434.975-435.025
AIST 2 25 Sep 14:36:05 14:39:32 25° 247° (WSW) 14:42:59 435.215
SWISSCUBE 25 Sep 14:42:11 14:46:14 26° 96° (E) 14:50:15 437.505
Cosmos 2504 25 Sep 14:51:33 14:58:03 32° 72° (ENE) 15:04:49 435.465 / 435.565
BEESAT 25 Sep 14:55:19 14:59:37 32° 97° (E) 15:03:53 436.000
Gurwin Techsat 1B 25 Sep 15:00:57 15:05:39 32° 264° (W) 15:10:23 435.225
ITAMSAT 1 25 Sep 15:12:03 15:17:13 85° 256° (WSW) 15:22:26 435.822/435.867
PHONESAT 2.4 25 Sep 15:19:08 15:22:07 79° 185° (S) 15:25:06 2401.200-2431.200
TISAT 1 25 Sep 15:33:43 15:36:28 17° 294° (WNW) 15:39:13 437.305
Cosmos 2491 25 Sep 15:55:32 16:04:19 78° 278° (W) 16:13:12 435.465 / 435.565
KKS-1 25 Sep 15:56:41 15:59:03 14° 92° (E) 16:01:26 437.445
YUBILEINY 25 Sep 16:03:07 16:10:54 39° 274° (W) 16:18:41 435.215
ITUPSAT 1 25 Sep 16:04:45 16:09:26 51° 288° (WNW) 16:14:04 437.325
PCSat 25 Sep 16:07:24 16:10:46 17° 256° (WSW) 16:14:07 145.827
AO-7 25 Sep 16:08:51 16:17:04 64° 256° (WSW) 16:25:20 29.400- 29.500
SO-50 25 Sep 16:10:49 16:15:38 73° 120° (ESE) 16:20:26 436.795
HORYU 2 25 Sep 16:14:34 16:17:38 19° 65° (ENE) 16:20:43 437.375
SWISSCUBE 25 Sep 16:19:45 16:24:00 32° 292° (WNW) 16:28:15 437.505
O/OREOS (USA 219) 25 Sep 16:23:03 16:23:58 11° 50° (NE) 16:24:54 437.305
AIST 1 25 Sep 16:26:00 16:29:51 31° 76° (ENE) 16:33:37
BEESAT 25 Sep 16:33:15 16:37:15 27° 293° (WNW) 16:41:14 436.000
STARS 25 Sep 16:37:25 16:40:30 19° 94° (E) 16:43:35 437.465
Cosmos 2504 25 Sep 16:44:33 16:51:33 47° 270° (W) 16:58:58 435.465 / 435.565
MOZHAYETS 4 25 Sep 16:46:06 16:50:46 82° 102° (ESE) 16:55:25
NOAA 15 25 Sep 16:47:10 16:49:48 14° 59° (ENE) 16:52:27 137.62
BRITE-PL 25 Sep 16:48:37 16:53:25 29° 67° (ENE) 16:58:11 437.365/2234.400
Cubesat XI-IV 25 Sep 16:53:50 16:56:03 13° 59° (ENE) 16:58:17 437.490
GOMX 1 25 Sep 16:54:30 16:57:19 14° 62° (ENE) 17:00:03 467.674
CUTE-I 25 Sep 16:54:44 16:57:05 13° 59° (ENE) 16:59:27 437.470
PHONESAT 2.4 25 Sep 16:55:27 16:58:03 27° 204° (SSW) 17:00:40 2401.200-2431.200
NOAA 18 25 Sep 17:11:35 17:14:53 17° 60° (ENE) 17:18:12 137.9125
DOVE 4 25 Sep 17:30:28 17:32:38 13° 63° (ENE) 17:34:45 437.250
KKS-1 25 Sep 17:31:36 17:35:55 51° 288° (WNW) 17:40:11 437.445
HORYU 2 25 Sep 17:49:44 17:53:53 40° 261° (W) 17:58:03 437.375
SO-50 25 Sep 17:53:20 17:56:37 18° 318° (NW) 17:59:53 436.795
Cosmos 2491 25 Sep 17:57:49 18:02:45 16° 300° (WNW) 18:07:44 435.465 / 435.565
CUBESAT XI-V 25 Sep 17:58:27 18:03:08 62° 101° (E) 18:07:45 437.345
O/OREOS (USA 219) 25 Sep 17:59:29 18:04:07 86° 67° (ENE) 18:08:42 437.305
AIST 1 25 Sep 18:04:03 18:07:12 20° 273° (W) 18:10:20
CUSAT 1 25 Sep 18:10:14 18:12:26 12° 75° (ENE) 18:14:47 437.405
HO-68 25 Sep 18:12:30 18:16:46 17° 54° (NE) 18:21:02 435.675
STARS 25 Sep 18:12:57 18:16:59 38° 289° (WNW) 18:21:01 437.465
NOAA 15 25 Sep 18:23:33 18:28:51 81° 255° (WSW) 18:34:13 137.62
MOZHAYETS 4 25 Sep 18:25:58 18:27:14 11° 299° (WNW) 18:28:31
BRITE-PL 25 Sep 18:26:18 18:31:39 41° 263° (W) 18:37:00 437.365/2234.400
LilacSat-2 25 Sep 18:28:31 18:32:17 84° 260° (W) 18:36:04 437.200
GOMX 1 25 Sep 18:29:18 18:34:46 79° 258° (WSW) 18:40:02 467.674
GONETS M04 25 Sep 18:29:33 18:34:26 16° 59° (ENE) 18:39:17
Cubesat XI-IV 25 Sep 18:30:02 18:35:21 88° 255° (WSW) 18:40:42 437.490
CUTE-I 25 Sep 18:31:04 18:36:23 86° 256° (WSW) 18:41:44 437.470
NOAA 18 25 Sep 18:49:29 18:54:56 71° 257° (WSW) 19:00:25 137.9125
CINEMA 3 25 Sep 19:00:17 19:03:56 25° 69° (ENE) 19:07:28 145.822/145.860
DOVE 4 25 Sep 19:04:38 19:09:45 78° 258° (WSW) 19:14:37 437.250
RS-15 25 Sep 19:12:56 19:22:06 29° 102° (ESE) 19:31:35 29.354- 29.394
DANDE 25 Sep 19:14:48 19:17:01 13° 76° (ENE) 19:19:28 436.750
STRAND 1 25 Sep 19:34:35 19:39:02 28° 96° (E) 19:43:26 437.568
CUBESAT XI-V 25 Sep 19:37:26 19:39:58 15° 297° (WNW) 19:42:29 437.345
COMPASS 1 25 Sep 19:45:04 19:48:27 24° 69° (ENE) 19:51:51 437.405
CUSAT 1 25 Sep 19:46:55 19:52:46 78° 96° (E) 20:00:09 437.405
HO-68 25 Sep 19:56:16 20:03:27 85° 73° (ENE) 20:10:39 435.675
CUTE 1.7 + AOD 2 25 Sep 20:01:20 20:05:33 80° 77° (ENE) 20:09:50 437.475
CANX-2 25 Sep 20:02:03 20:06:16 86° 254° (WSW) 20:10:33 2200.000
Cosmos 2499 25 Sep 20:02:25 20:09:38 49° 77° (ENE) 20:17:21 435.465 / 435.565
SEEDS 25 Sep 20:07:43 20:11:52 65° 76° (ENE) 20:16:04 437.485
GONETS M04 25 Sep 20:24:01 20:32:53 77° 81° (E) 20:41:38
CUBEBUG 2 25 Sep 20:24:49 20:28:55 52° 74° (ENE) 20:32:58 437.445
CINEMA 3 25 Sep 20:36:57 20:40:57 30° 263° (W) 20:44:49 145.822/145.860
AAUSAT CUBESAT 2 25 Sep 20:37:53 20:42:01 77° 76° (ENE) 20:46:13 437.432
FUNcube-1 25 Sep 20:43:30 20:47:09 31° 70° (ENE) 20:50:49 145.935
DELFI C3 25 Sep 20:47:07 20:49:15 14° 65° (ENE) 20:51:24 145.870
UWE-3 25 Sep 20:48:21 20:52:28 63° 75° (ENE) 20:56:35 435.000/436.395/437.385
DANDE 25 Sep 20:53:37 20:58:22 76° 281° (WNW) 21:04:51 436.750
STRAND 1 25 Sep 21:13:35 21:18:11 34° 292° (WNW) 21:22:47 437.568
COMPASS 1 25 Sep 21:20:20 21:23:53 27° 265° (W) 21:27:28 437.405
RS-15 25 Sep 21:21:34 21:33:12 80° 304° (WNW) 21:45:31 29.354- 29.394
ZACube-1 25 Sep 21:23:30 21:27:39 82° 256° (WSW) 21:31:49 437.345
Oscar 11 25 Sep 21:26:13 21:30:30 79° 258° (WSW) 21:34:51 145.826/435.025
CUSAT 1 25 Sep 21:31:25 21:35:53 19° 300° (WNW) 21:40:56 437.405
ISS 25 Sep 21:41:50 21:45:04 89° 168° (SSE) 21:48:21 145.825
HO-68 25 Sep 21:47:37 21:51:56 17° 270° (W) 21:56:17 435.675
AO-85 25 Sep 21:51:10 21:56:22 69° 120° (ESE) 22:01:16 145.980
Cosmos 2499 25 Sep 21:56:02 22:02:27 32° 274° (W) 22:09:17 435.465 / 435.565
CUBEBUG 2 25 Sep 22:04:03 22:05:50 12° 269° (W) 22:07:36 437.445
HUMSAT D 25 Sep 22:06:05 22:10:03 55° 74° (ENE) 22:14:05 437.325/437.525
PRISM 25 Sep 22:08:04 22:12:13 72° 284° (WNW) 22:16:18 437.425
ESTCUBE 1 25 Sep 22:09:15 22:10:22 11° 61° (ENE) 22:11:29 437.505/2401.250
DELFI C3 25 Sep 22:19:52 22:23:41 45° 261° (W) 22:27:33 145.870
FUNcube-1 25 Sep 22:20:23 22:23:27 20° 266° (W) 22:26:32 145.935
GONETS M04 25 Sep 22:22:31 22:28:39 22° 281° (W) 22:34:46
ANTELSAT 25 Sep 22:24:31 22:27:53 21° 94° (E) 22:31:17 437.575/2403.000
CUBEBUG 1 25 Sep 22:29:50 22:31:04 11° 62° (ENE) 22:32:19 437.445
DANDE 25 Sep 22:41:29 22:42:53 11° 307° (NW) 22:44:22 436.750
TIGRISAT 25 Sep 22:45:17 22:49:15 33° 97° (E) 22:53:17 435.000
50 SAT 25 Sep 23:00:41 23:02:35 14° 66° (ENE) 23:04:29 437.505
SO-50 25 Sep 23:05:12 23:05:47 10° 34° (NNE) 23:06:22 436.795
AISAT 25 Sep 23:08:54 23:12:27 24° 67° (ENE) 23:16:01 437.250
JAS-2 25 Sep 23:11:04 23:14:45 14° 84° (E) 23:18:23 435.910
AUBIESAT-1 25 Sep 23:11:35 23:14:41 21° 64° (ENE) 23:17:39 437.475
ISS 25 Sep 23:19:31 23:21:56 19° 341° (NNW) 23:24:22 145.825
SPROUT 25 Sep 23:20:47 23:23:22 16° 65° (ENE) 23:25:56 437.525
UNISAT 6 25 Sep 23:24:49 23:29:12 83° 283° (WNW) 23:33:40 437.425
UKube-1 25 Sep 23:29:30 23:32:30 19° 65° (ENE) 23:35:31 .
AO-85 25 Sep 23:33:34 23:37:14 20° 316° (NW) 23:40:45 145.980
QB50P1 25 Sep 23:34:09 23:36:38 15° 92° (E) 23:39:06 145.935-145.965
DUCHIFAT 1 25 Sep 23:35:07 23:37:11 13° 92° (E) 23:39:13 145.980
RS-15 25 Sep 23:37:54 23:48:01 31° 332° (NNW) 23:58:30 29.354- 29.394
ESTCUBE 1 25 Sep 23:41:57 23:46:29 80° 258° (WSW) 23:51:03 437.505/2401.250
HUMSAT D 25 Sep 23:44:50 23:46:02 11° 270° (W) 23:47:14 437.325/437.525
M-CUBED/EXP-1 PRIME 25 Sep 23:45:35 23:49:47 65° 70° (ENE) 23:53:42 437.505
POPSAT HIP 1 25 Sep 23:46:50 23:50:02 21° 94° (E) 23:53:12 437.405
VELOX 1 25 Sep 23:51:44 23:56:08 65° 75° (ENE) 00:00:33 145.980
DX 1 25 Sep 23:52:08 23:56:14 41° 71° (ENE) 00:00:22 434.975-435.025
ANTELSAT 26 Sep 00:00:41 00:04:39 34° 289° (WNW) 00:08:40 437.575/2403.000
CUBEBUG 1 26 Sep 00:02:19 00:06:43 75° 257° (WSW) 00:11:09 437.445
NANOSAT C BR1 26 Sep 00:04:27 00:08:12 31° 97° (E) 00:11:56 145.865
TIGRISAT 26 Sep 00:22:23 00:25:46 22° 292° (WNW) 00:29:12 435.000
QB50P2 26 Sep 00:25:13 00:29:26 63° 102° (ESE) 00:33:36 145.880/145.840
POLYITAN 1 26 Sep 00:27:27 00:31:39 63° 101° (E) 00:35:50 437.675
50 SAT 26 Sep 00:32:22 00:35:45 37° 262° (W) 00:39:11 437.505
SO-50 26 Sep 00:42:45 00:47:17 57° 54° (NE) 00:51:41 436.795
AISAT 26 Sep 00:44:47 00:48:46 31° 263° (W) 00:52:46 437.250
AUBIESAT-1 26 Sep 00:45:17 00:49:00 31° 257° (WSW) 00:52:29 437.475
TISAT 1 26 Sep 00:48:35 00:52:12 28° 69° (ENE) 00:55:48 437.305
JAS-2 26 Sep 00:52:59 01:00:55 76° 102° (ESE) 01:08:30 435.910
SPROUT 26 Sep 00:54:48 00:58:55 46° 261° (W) 01:03:02 437.525
ISS 26 Sep 00:57:59 00:59:26 12° 2° (N) 01:00:52 145.825
Oscar 19 26 Sep 01:01:28 01:02:16 10° 88° (E) 01:03:04 437.125/150
UKube-1 26 Sep 01:04:11 01:08:14 40° 261° (W) 01:12:20 .
QB50P1 26 Sep 01:08:37 01:12:36 43° 288° (WNW) 01:16:35 145.935-145.965
DUCHIFAT 1 26 Sep 01:09:05 01:13:08 49° 287° (WNW) 01:17:10 145.980
BUGSAT 1 26 Sep 01:21:10 01:25:12 89° 314° (NW) 01:29:13 437.445
POPSAT HIP 1 26 Sep 01:22:07 01:25:50 31° 290° (WNW) 01:29:34 437.405
M-CUBED/EXP-1 PRIME 26 Sep 01:23:51 01:24:31 10° 263° (W) 01:25:11 437.505
DX 1 26 Sep 01:29:40 01:32:35 17° 267° (W) 01:35:31 434.975-435.025
VELOX 1 26 Sep 01:31:34 01:33:00 11° 270° (W) 01:34:27 145.980
ITUPSAT 1 26 Sep 01:34:47 01:38:11 20° 64° (ENE) 01:41:36 437.325
BEESAT 3 26 Sep 01:38:27 01:42:15 56° 118° (ESE) 01:46:07 437.485
Gurwin Techsat 1B 26 Sep 01:39:20 01:41:25 12° 89° (E) 01:43:30 435.225
NANOSAT C BR1 26 Sep 01:40:32 01:43:44 21° 293° (WNW) 01:46:56 145.865
SWISSCUBE 26 Sep 01:48:19 01:52:26 30° 68° (ENE) 01:56:34 437.505
RS-15 26 Sep 01:57:09 02:06:10 22° 7° (N) 02:15:14 29.354- 29.394
BEESAT 26 Sep 02:01:19 02:05:38 36° 70° (ENE) 02:09:59 436.000
QB50P2 26 Sep 02:03:08 02:04:40 12° 297° (WNW) 02:06:14 145.880/145.840
POLYITAN 1 26 Sep 02:05:23 02:06:55 12° 297° (WNW) 02:08:26 437.675
Cosmos 2491 26 Sep 02:06:26 02:15:05 53° 76° (ENE) 02:23:37 435.465 / 435.565
TISAT 1 26 Sep 02:24:27 02:27:48 23° 265° (W) 02:31:10 437.305
SO-50 26 Sep 02:24:39 02:27:14 15° 251° (WSW) 02:29:46 436.795
BEESAT 2 26 Sep 02:29:01 02:32:57 81° 302° (WNW) 02:36:58 435.950
ISS 26 Sep 02:34:12 02:36:51 22° 22° (NNE) 02:39:30 145.825
Oscar 19 26 Sep 02:37:03 02:42:15 86° 285° (WNW) 02:47:22 437.125/150
JAS-2 26 Sep 02:39:04 02:45:05 25° 301° (WNW) 02:51:01 435.910
KKS-1 26 Sep 02:54:57 02:57:15 14° 63° (ENE) 02:59:32 437.445
YUBILEINY 26 Sep 03:06:12 03:14:37 53° 90° (E) 03:23:01 435.215
ITUPSAT 1 26 Sep 03:11:08 03:15:41 45° 261° (W) 03:20:16 437.325
Gurwin Techsat 1B 26 Sep 03:16:37 03:21:57 79° 287° (WNW) 03:27:16 435.225
BEESAT 3 26 Sep 03:17:51 03:20:15 15° 316° (NW) 03:22:41 437.485
ITAMSAT 1 26 Sep 03:25:26 03:30:11 35° 97° (E) 03:34:55 435.822/435.867
SWISSCUBE 26 Sep 03:26:06 03:30:10 28° 264° (W) 03:34:17 437.505
Cosmos 2504 26 Sep 03:31:05 03:36:54 26° 84° (E) 03:42:33 435.465 / 435.565
STARS 26 Sep 03:34:09 03:37:01 17° 65° (ENE) 03:39:54 437.465
BEESAT 26 Sep 03:39:44 03:43:29 23° 265° (W) 03:47:18 436.000
MOZHAYETS 4 26 Sep 03:47:21 03:51:52 73° 76° (ENE) 03:56:29
Cosmos 2491 26 Sep 04:03:54 04:11:29 34° 276° (W) 04:19:02 435.465 / 435.565
ISS 26 Sep 04:10:20 04:13:35 64° 220° (SW) 04:16:51 145.825
BEESAT 2 26 Sep 04:10:36 04:11:27 11° 321° (NW) 04:12:18 435.950
AO-7 26 Sep 04:10:46 04:18:40 46° 100° (E) 04:26:31 29.400- 29.500
RS-15 26 Sep 04:11:42 04:23:20 43° 40° (NE) 04:34:44 29.354- 29.394
Oscar 19 26 Sep 04:19:12 04:20:44 11° 302° (WNW) 04:22:16 437.125/150
KKS-1 26 Sep 04:28:55 04:33:18 59° 259° (W) 04:37:44 437.445
AIST 2 26 Sep 04:32:15 04:36:19 71° 121° (ESE) 04:40:27 435.215
CUSAT 1 26 Sep 04:42:36 04:45:33 12° 54° (NE) 04:48:23 437.405
AIST 1 26 Sep 04:55:35 04:58:42 19° 87° (E) 05:01:50
Gurwin Techsat 1B 26 Sep 04:59:47 05:01:00 11° 303° (WNW) 05:02:13 435.225
CUBESAT XI-V 26 Sep 05:01:04 05:05:39 57° 73° (ENE) 05:10:17 437.345
PCSat 26 Sep 05:03:35 05:08:56 65° 115° (ESE) 05:14:18 145.827
YUBILEINY 26 Sep 05:03:57 05:11:42 34° 289° (WNW) 05:19:28 435.215
ITAMSAT 1 26 Sep 05:05:04 05:09:31 29° 293° (WNW) 05:13:57 435.822/435.867
STARS 26 Sep 05:08:50 05:13:02 44° 261° (W) 05:17:15 437.465
Cosmos 2504 26 Sep 05:22:30 05:29:47 55° 282° (WNW) 05:36:50 435.465 / 435.565
MOZHAYETS 4 26 Sep 05:28:53 05:29:33 10° 271° (W) 05:30:13
HORYU 2 26 Sep 05:40:39 05:44:46 36° 98° (E) 05:48:53 437.375
DANDE 26 Sep 05:49:42 05:55:31 20° 62° (ENE) 06:01:13 436.750
